When you browse on this site, cookies collect data to enhance your experience and personalize the content and advertising you see.
Visit our Privacy Policy to learn more. By continuing to use the site, you agree to this use of cookies and data.

Météo par heure à Chichester

Ce jour, 6 Juillet, Lundi

Heure Température Précipitation Vent Pression Humidité
00:00 +11°C° 0 mm 9 m/s 760 mmHg 75%
01:00 +11°C° 0 mm 8 m/s 760 mmHg 78%
02:00 +10°C° 0 mm 8 m/s 760 mmHg 81%
03:00 +10°C° 0 mm 8 m/s 761 mmHg 84%
04:00 +10°C° 0 mm 8 m/s 761 mmHg 82%
05:00 +11°C° 0 mm 8 m/s 761 mmHg 79%
06:00 +11°C° 0 mm 8 m/s 761 mmHg 77%
07:00 +12°C° 0 mm 8 m/s 762 mmHg 73%
08:00 +13°C° 0 mm 8 m/s 762 mmHg 68%
09:00 +15°C° 0 mm 8 m/s 763 mmHg 64%
10:00 +16°C° 0 mm 7 m/s 763 mmHg 62%
11:00 +16°C° 0 mm 7 m/s 763 mmHg 61%
12:00 +17°C° 0 mm 6 m/s 764 mmHg 59%
13:00 +17°C° 0 mm 6 m/s 764 mmHg 59%
14:00 +19°C° 0 mm 6 m/s 764 mmHg 59%
15:00 +19°C° 0 mm 5 m/s 764 mmHg 59%
16:00 +19°C° 0.1 mm 5 m/s 764 mmHg 62%
17:00 +19°C° 0.1 mm 5 m/s 765 mmHg 65%
18:00 +19°C° 0.1 mm 5 m/s 765 mmHg 68%
19:00 +16°C° 0.1 mm 5 m/s 765 mmHg 74%
20:00 +15°C° 0.1 mm 4 m/s 766 mmHg 79%
21:00 +13°C° 0.1 mm 4 m/s 766 mmHg 85%
22:00 +12°C° 0 mm 3 m/s 766 mmHg 85%
23:00 +11°C° 0 mm 3 m/s 766 mmHg 85%

Demain, 7 Juillet, Mardi

Heure Température Précipitation Vent Pression Humidité
00:00 +10°C° 0 mm 2 m/s 765 mmHg 85%
01:00 +10°C° 0 mm 2 m/s 765 mmHg 85%
02:00 +10°C° 0 mm 2 m/s 765 mmHg 85%
03:00 +10°C° 0 mm 2 m/s 765 mmHg 84%
04:00 +10°C° 0 mm 2 m/s 765 mmHg 83%
05:00 +12°C° 0 mm 1 m/s 765 mmHg 82%
06:00 +13°C° 0 mm 1 m/s 764 mmHg 80%
07:00 +15°C° 0 mm 2 m/s 764 mmHg 74%
08:00 +16°C° 0 mm 3 m/s 764 mmHg 69%
09:00 +18°C° 0 mm 4 m/s 764 mmHg 63%
10:00 +17°C° 0 mm 5 m/s 764 mmHg 62%
11:00 +19°C° 0 mm 6 m/s 764 mmHg 61%
12:00 +19°C° 0 mm 6 m/s 764 mmHg 61%
13:00 +18°C° 0 mm 7 m/s 763 mmHg 61%
14:00 +20°C° 0 mm 7 m/s 763 mmHg 62%
15:00 +20°C° 0 mm 7 m/s 763 mmHg 62%
16:00 +20°C° 0 mm 8 m/s 762 mmHg 65%
17:00 +18°C° 0 mm 8 m/s 762 mmHg 67%
18:00 +18°C° 0 mm 8 m/s 762 mmHg 70%
19:00 +17°C° 0 mm 8 m/s 762 mmHg 74%
20:00 +16°C° 0 mm 7 m/s 762 mmHg 78%
21:00 +15°C° 0 mm 7 m/s 762 mmHg 81%
22:00 +15°C° 0 mm 7 m/s 761 mmHg 82%
23:00 +15°C° 0 mm 7 m/s 761 mmHg 82%

Après-demain, 8 Juillet, Mercredi

Heure Température Précipitation Vent Pression Humidité
00:00 +15°C° 0 mm 7 m/s 761 mmHg 82%
01:00 +15°C° 0 mm 7 m/s 761 mmHg 83%
02:00 +16°C° 0 mm 7 m/s 760 mmHg 84%
03:00 +16°C° 0 mm 6 m/s 760 mmHg 85%
04:00 +16°C° 0 mm 6 m/s 760 mmHg 87%
05:00 +16°C° 0 mm 6 m/s 760 mmHg 89%
06:00 +16°C° 0 mm 6 m/s 760 mmHg 91%
07:00 +17°C° 0.1 mm 6 m/s 761 mmHg 85%
08:00 +19°C° 0.1 mm 6 m/s 761 mmHg 79%
09:00 +20°C° 0.1 mm 6 m/s 761 mmHg 73%
10:00 +20°C° 0 mm 6 m/s 762 mmHg 72%
11:00 +19°C° 0 mm 6 m/s 762 mmHg 71%
12:00 +19°C° 0 mm 5 m/s 762 mmHg 70%
13:00 +20°C° 0 mm 5 m/s 762 mmHg 67%
14:00 +21°C° 0 mm 5 m/s 762 mmHg 64%
15:00 +22°C° 0 mm 6 m/s 762 mmHg 62%
16:00 +22°C° 0 mm 5 m/s 762 mmHg 64%
17:00 +21°C° 0 mm 5 m/s 762 mmHg 67%
18:00 +21°C° 0 mm 5 m/s 762 mmHg 69%
19:00 +20°C° 0 mm 4 m/s 762 mmHg 73%
20:00 +19°C° 0 mm 4 m/s 762 mmHg 77%
21:00 +18°C° 0 mm 3 m/s 762 mmHg 81%
22:00 +17°C° 0 mm 3 m/s 762 mmHg 85%
23:00 +17°C° 0 mm 4 m/s 762 mmHg 89%

9 Juillet, Jeudi

Heure Température Précipitation Vent Pression Humidité
00:00 +15°C° 0 mm 4 m/s 762 mmHg 94%
01:00 +17°C° 0 mm 4 m/s 762 mmHg 94%
02:00 +16°C° 0 mm 5 m/s 761 mmHg 95%
03:00 +16°C° 0 mm 5 m/s 761 mmHg 96%
04:00 +16°C° 0 mm 6 m/s 761 mmHg 94%
05:00 +16°C° 0 mm 6 m/s 761 mmHg 91%
06:00 +16°C° 0 mm 6 m/s 760 mmHg 89%
07:00 +17°C° 0 mm 7 m/s 760 mmHg 84%
08:00 +18°C° 0 mm 7 m/s 760 mmHg 79%
09:00 +20°C° 0 mm 8 m/s 760 mmHg 74%
10:00 +21°C° 0 mm 8 m/s 760 mmHg 72%
11:00 +21°C° 0 mm 9 m/s 760 mmHg 69%
12:00 +22°C° 0 mm 9 m/s 759 mmHg 67%
13:00 +21°C° 0 mm 9 m/s 759 mmHg 70%
14:00 +19°C° 0 mm 9 m/s 759 mmHg 74%
15:00 +18°C° 0 mm 9 m/s 758 mmHg 77%
16:00 +18°C° 0 mm 9 m/s 758 mmHg 79%
17:00 +18°C° 0 mm 8 m/s 758 mmHg 81%
18:00 +18°C° 0 mm 8 m/s 758 mmHg 83%
19:00 +18°C° 0 mm 7 m/s 758 mmHg 86%
20:00 +17°C° 0 mm 7 m/s 758 mmHg 88%
21:00 +17°C° 0 mm 6 m/s 758 mmHg 91%
22:00 +16°C° 0.1 mm 6 m/s 758 mmHg 89%
23:00 +15°C° 0.1 mm 6 m/s 758 mmHg 88%

10 Juillet, Vendredi

Heure Température Précipitation Vent Pression Humidité
00:00 +14°C° 0.1 mm 6 m/s 758 mmHg 86%
01:00 +13°C° 0 mm 6 m/s 758 mmHg 87%
02:00 +11°C° 0 mm 6 m/s 759 mmHg 87%
03:00 +9°C° 0 mm 7 m/s 759 mmHg 88%
04:00 +9°C° 0 mm 7 m/s 759 mmHg 86%
05:00 +9°C° 0 mm 7 m/s 759 mmHg 85%
06:00 +10°C° 0 mm 7 m/s 760 mmHg 83%
07:00 +11°C° 0 mm 7 m/s 760 mmHg 76%
08:00 +14°C° 0 mm 7 m/s 761 mmHg 69%
09:00 +15°C° 0 mm 6 m/s 761 mmHg 62%
10:00 +16°C° 0 mm 6 m/s 761 mmHg 58%
11:00 +17°C° 0 mm 6 m/s 762 mmHg 54%
12:00 +19°C° 0 mm 6 m/s 762 mmHg 50%
13:00 +19°C° 0 mm 6 m/s 762 mmHg 50%
14:00 +19°C° 0 mm 6 m/s 762 mmHg 50%
15:00 +20°C° 0 mm 5 m/s 763 mmHg 50%
16:00 +19°C° 0 mm 5 m/s 763 mmHg 52%
17:00 +19°C° 0 mm 5 m/s 763 mmHg 54%
18:00 +19°C° 0 mm 6 m/s 763 mmHg 55%
19:00 +16°C° 0 mm 5 m/s 764 mmHg 62%
20:00 +14°C° 0 mm 5 m/s 764 mmHg 68%
21:00 +12°C° 0 mm 5 m/s 765 mmHg 74%
22:00 +12°C° 0 mm 5 m/s 765 mmHg 76%
23:00 +10°C° 0 mm 5 m/s 765 mmHg 78%

11 Juillet, Samedi

Heure Température Précipitation Vent Pression Humidité
00:00 +9°C° 0 mm 5 m/s 765 mmHg 79%
01:00 +9°C° 0 mm 5 m/s 765 mmHg 81%
02:00 +8°C° 0 mm 5 m/s 766 mmHg 83%
03:00 +8°C° 0 mm 5 m/s 766 mmHg 84%
04:00 +8°C° 0 mm 5 m/s 766 mmHg 81%
05:00 +9°C° 0 mm 5 m/s 766 mmHg 78%
06:00 +10°C° 0 mm 5 m/s 766 mmHg 75%
07:00 +12°C° 0 mm 4 m/s 767 mmHg 69%
08:00 +14°C° 0 mm 4 m/s 767 mmHg 63%
09:00 +17°C° 0 mm 3 m/s 767 mmHg 56%
10:00 +18°C° 0 mm 3 m/s 767 mmHg 52%
11:00 +19°C° 0 mm 3 m/s 767 mmHg 48%
12:00 +20°C° 0 mm 3 m/s 767 mmHg 44%
13:00 +20°C° 0 mm 3 m/s 767 mmHg 44%
14:00 +21°C° 0 mm 3 m/s 767 mmHg 44%
15:00 +21°C° 0 mm 3 m/s 767 mmHg 44%
16:00 +21°C° 0 mm 4 m/s 767 mmHg 48%
17:00 +20°C° 0 mm 4 m/s 767 mmHg 52%
18:00 +20°C° 0 mm 4 m/s 767 mmHg 55%
19:00 +18°C° 0 mm 4 m/s 767 mmHg 62%
20:00 +15°C° 0 mm 4 m/s 768 mmHg 68%
21:00 +13°C° 0 mm 4 m/s 768 mmHg 75%
22:00 +13°C° 0 mm 4 m/s 768 mmHg 77%
23:00 +12°C° 0 mm 4 m/s 768 mmHg 79%
Voir plus